Find Hawk 12A

NORAD ID: 64623 Int'l Des: 2025-138 Owner: HE360 Country: US Constellation: hawkeye-360 operational
LEOCIRCULARRETROGRADESSO

当前视图

正在加载3D地球...

关于 Hawk 12A

正在加载描述...

即将过境

Passes for default location (London). Set your location on the main map for personalized predictions.

高度历史

Loading altitude history...

两行轨道根数

1 64623U 25138C 26149.52066725 .00004169 00000-0 20771-3 0 9995
2 64623 97.4398 152.5940 0013389 195.5373 164.5451 15.18039620 51036
Epoch: May 29, 2026 • Age: 19 hours

当前状态

高度 528.6 km
速度 7.60 km/s
星下点 66.92°N, 131.11°E
发射日期 Jun 26, 2025
运行时间 0.9 years
类型 other

技术详情

分类 Payload
质量 31.00 kg
干质量 30.00 kg
总质量 31.00 kg
长度 0.45 m
直径 0.30 m
跨度 1.00 m
形状 Box + 2 pan
制造商 UTIAS
平台类型 Hawk2G
阶段状态 In Orbit
所有者/国家 HE360/US

Most Searched